Regional Weather Roundup
Issued by NWS

Home | Current Version | Previous Version | Graphics & Text | Print | Product List | Glossary On
Versions: 1 2 3 4 5 6 7 8 9 10 11 12 13 14 15 16 17 18 19 20 21 22 23 24 25 26 27 28 29 30 31 32 33 34 35 36 37 38 39 40 41 42 43 44 45 46 47 48 49 50
000
ASUS43 KLMK 270302
RWRKY
KENTUCKY REGIONAL WEATHER ROUNDUP
NATIONAL WEATHER SERVICE LOUISVILLE KY
1000 PM EST THU FEB 26 2015

NOTE "FAIR" INDICATES FEW OR NO CLOUDS BELOW 12,000 FEET
WITH NO SIGNIFICANT WEATHER AND/OR OBSTRUCTIONS TO VISIBILITY.

KYZ001>023-026-027-061>063-070>075-270400-
WESTERN AND SOUTH CENTRAL KENTUCKY

CITY           SKY/WX    TMP DP  RH WIND       PRES   REMARKS
PADUCAH        CLEAR     22  14  71 N12       30.41R WCI  10
HENDERSON      CLEAR     21  10  63 NW10      30.40R WCI  10
OWENSBORO      PTCLDY    22  13  68 N13       30.38R WCI  10
HOPKINSVILLE   NOT AVBL
BOWLING GREEN  CLOUDY    27  17  66 NW9       30.33R WCI  18
GLASGOW        NOT AVBL
$$

KYZ024-025-028>034-038-045-046-053-270400-
NORTH CENTRAL KENTUCKY

CITY           SKY/WX    TMP DP  RH WIND       PRES   REMARKS
LOUISVILLE/SDF PTCLDY    20   9  62 N16       30.34R WCI   6
LOUISVILLE/LOU CLEAR     19   9  65 N10G20    30.34R WCI   7
FORT KNOX      NOT AVBL
$$

KYZ035>037-039>044-047>052-055>060-089>105-270400-
NORTHEAST KENTUCKY

CITY           SKY/WX    TMP DP  RH WIND       PRES   REMARKS
LEXINGTON      CLOUDY    19  12  74 N14       30.27R WCI   6
COVINGTON      PTCLDY    14   5  67 N9        30.31R WCI   2
FRANKFORT      FLURRIES  19  12  74 N10       30.28R WCI   7
$$

KYZ054-064>069-076>088-106>120-270400-
SOUTHEAST KENTUCKY

CITY           SKY/WX    TMP DP  RH WIND       PRES   REMARKS
JACKSON        CLOUDY    26  14  60 VRB6      30.18R WCI  19
LONDON         CLOUDY    30  16  56 NW10      30.19R WCI  21
SOMERSET       NOT AVBL
MIDDLESBORO    NOT AVBL
MONTICELLO     FLURRIES  29  21  71 NW14      30.27R WCI  18
$$



USA.gov is the U.S. government's official web portal to all federal, state and local government web resources and services.